Location: Unspecified
(42.9300°N, 71.1866°W)
Time: 22:29:44
(UTC-04:00)

Cosmos 2058 - Visible Passes

Search period start: 02 September 2015 00:00
Search period end: 12 September 2015 00:00
Orbit: 566 x 588 km, 82.5° (Epoch: 02 September)

Date Brightness Start Highest point End Pass type
(mag) Time Alt. Az. Time Alt. Az. Time Alt. Az.
02 Sep 6.0 23:27:24 10° N 23:27:48 12° N 23:27:48 12° N visible
03 Sep 6.0 23:31:33 10° N 23:31:57 12° N 23:31:57 12° N visible
04 Sep 6.1 23:35:46 10° N 23:36:05 12° N 23:36:05 12° N visible
05 Sep 6.2 23:40:03 10° NNW 23:40:15 11° NNW 23:40:15 11° NNW visible
06 Sep 6.3 23:44:23 10° NNW 23:44:24 10° NNW 23:44:24 10° NNW visible
07 Sep 5.8 22:12:10 10° NNE 22:12:18 11° NNE 22:12:18 11° NNE visible
08 Sep 5.7 22:16:05 10° NNE 22:16:28 12° NNE 22:16:28 12° NNE visible
09 Sep 5.7 22:20:06 10° N 22:20:40 13° N 22:20:40 13° N visible
10 Sep 5.7 22:24:10 10° N 22:24:51 14° N 22:24:51 14° N visible
11 Sep 5.7 22:28:19 10° N 22:29:04 15° N 22:29:04 15° N visible
